Погода в Коринфе

Греция     37°56′16″N   22°55′55″E
темп.,
°C
ветер,
м/с
пор.,
м/с
влажн.,
%
обл.,
%
осадки,
мм/ч
давл.,
гПа
погр.,
м
5 августа, чт
чт500:00+30ююз11340 0.0 101311
03:00+29зсз22361 0.0 101219
06:00+28з33385 0.0 101243
09:00+32зсз36270 0.0 1012291
12:00+35зсз36180 0.0 1011488
15:00+39сз36144 0.0 10091062
18:00+36сз814230 0.0 1008752
21:00+30зсз47430 0.0 1008103
6 августа, пт
пт600:00+29зсз23300 0.0 100828
03:00+28з23273 0.0 100723
06:00+28зсз3531100 0.0 100583
09:00+29зсз6945100 0.0 1005516
12:00+31зсз81044100 0.0 1005739
15:00+31сз913346 0.0 1004727
18:00+30сз914320 0.0 1003728
21:00+27сз914500 0.0 1003741
7 августа, сб
сб700:00+26сз813640 0.0 1006605
03:00+25сз69670 0.0 1007435
06:00+24ссз35680 0.0 1008152
09:00+28с23520 0.0 1009473
12:00+32ссз36320 0.0 10101453
15:00+34с35250 0.0 10091652
18:00+34всв44250 0.0 10091527
21:00+26юв34564 0.0 101171
8 августа, вс
вс800:00+25ю12570 0.0 101347
03:00+24юз12600 0.0 101336
06:00+24зсз11620 0.0 101337
09:00+28ссз22450 0.0 1014335
12:00+33сз23270 0.0 10141051
15:00+35с23230 0.0 10131279
18:00+35св13260 0.0 10131133
21:00+28з01430 0.0 101413
9 августа, пн
пн900:00+26юз12470 0.0 101519
03:00+26зсз23530 0.0 101548
06:00+25зсз11540 0.0 101421
09:00+29сз23390 0.0 1015289
12:00+34сз32250 0.0 1015688
15:00+37ссв23190 0.0 10131196
18:00+36в22240 0.0 1012956
21:00+29в01456 0.0 101411